Park Rapids, MN

8:00 AM CDT on May 26, 2018 (GMT -0500)
Park Rapids Municipal

Weather History for KPKD - March, 2013

Change the Weather History Date:

Wednesday, March 20, 2013

  Actual Average Record
Temperature  
Mean Temperature 6 °F -  
Max Temperature 17 °F 39 °F 58 °F (1987)
Min Temperature -5 °F 19 °F -12 °F (1965)
Degree Days  
Heating Degree Days 59    
Moisture  
Dew Point -5 °F    
Average Humidity 64    
Maximum Humidity 76    
Minimum Humidity 45    
Precipitation  
Precipitation 0.00 in - - ()
Sea Level Pressure  
Sea Level Pressure 30.25 in    
Wind  
Wind Speed 14 mph (NW)    
Max Wind Speed 24 mph    
Max Gust Speed 33 mph    
Visibility 10 miles    
Events Snow    
Averages and records for this station are not official NWS values.
T = Trace of Precipitation, MM = Missing Value Source: NWS Daily Summary

Daily Weather History Graph

Daily Weather History Graph

Search for Another Location

Airport or City:

Astronomy

Mar. 20, 2013 Rise Set
Actual Time 7:22 AM CDT 7:33 PM CDT
Civil Twilight 6:52 AM CDT 8:03 PM CDT
Nautical Twilight 6:16 AM CDT 8:39 PM CDT
Astronomical Twilight 5:40 AM CDT 9:16 PM CDT
Moon 12:49 PM CDT (3/20) 3:23 AM CDT (3/20)
Length of Visible Light 13h 11m
Length of Day
12h 10m
First Quarter, 59% of the Moon is Illuminated
Mar 20
First Quarter
Mar 27
Full
Apr 2
Last Quarter
Apr 10
New
Apr 18
First Quarter

Hourly Weather History & Observations

Time (CDT) Temp. Windchill Dew Point Humidity Pressure Visibility Wind Dir Wind Speed Gust Speed Precip Events Conditions
12:53 AM -0.0 °F -18.0 °F -8.0 °F 69% 30.27 in 10.0 mi WNW 12.7 mph - N/A   Clear
1:53 AM -0.9 °F -19.9 °F -8.0 °F 72% 30.27 in 10.0 mi WNW 13.8 mph - N/A   Clear
2:53 AM -0.9 °F -19.9 °F -9.0 °F 69% 30.27 in 10.0 mi NW 13.8 mph - N/A   Clear
3:53 AM -2.0 °F -20.5 °F -9.0 °F 72% 30.27 in 10.0 mi WNW 12.7 mph - N/A   Clear
4:53 AM -2.0 °F -21.9 °F -9.9 °F 69% 30.28 in 10.0 mi WNW 15.0 mph - N/A   Clear
5:53 AM -2.9 °F -22.4 °F -9.9 °F 72% 30.28 in 10.0 mi WNW 13.8 mph - N/A   Clear
6:53 AM -4.0 °F -23.7 °F -9.9 °F 76% 30.30 in 10.0 mi WNW 13.8 mph - N/A   Clear
7:53 AM -4.0 °F -23.0 °F -11.0 °F 72% 30.30 in 10.0 mi WNW 12.7 mph - N/A   Clear
8:53 AM -0.0 °F -19.4 °F -9.0 °F 66% 30.30 in 10.0 mi NW 15.0 mph - N/A   Clear
9:53 AM 5.0 °F -13.0 °F -6.0 °F 61% 30.28 in 10.0 mi NW 15.0 mph - N/A   Clear
10:53 AM 10.0 °F -10.4 °F -4.0 °F 53% 30.26 in 6.0 mi NNW 24.2 mph 33.4 mph 0.00 in Snow Blowing Snow
11:53 AM 12.0 °F -5.6 °F -2.9 °F 51% 30.24 in 9.0 mi NNW 18.4 mph 31.1 mph 0.00 in   Clear
12:53 PM 14.0 °F -4.3 °F -0.9 °F 52% 30.23 in 9.0 mi NW 21.9 mph 28.8 mph 0.00 in   Clear
1:53 PM 17.1 °F 0.6 °F -0.9 °F 45% 30.22 in 10.0 mi NNW 19.6 mph 27.6 mph 0.00 in   Clear
2:53 PM 16.0 °F -0.4 °F 1.9 °F 54% 30.20 in 10.0 mi NW 18.4 mph - 0.00 in   Clear
3:53 PM 16.0 °F 1.1 °F 1.9 °F 54% 30.19 in 10.0 mi NW 15.0 mph 23.0 mph N/A   Clear
4:53 PM 16.0 °F 0.1 °F 1.9 °F 54% 30.20 in 10.0 mi NW 17.3 mph - N/A   Clear
5:53 PM 14.0 °F -1.4 °F 1.0 °F 56% 30.20 in 10.0 mi NW 15.0 mph - N/A   Clear
6:53 PM 12.9 °F -0.9 °F -0.0 °F 56% 30.21 in 10.0 mi NNW 11.5 mph - N/A   Clear
7:53 PM 10.9 °F -0.8 °F -0.9 °F 59% 30.22 in 10.0 mi NNW 8.1 mph - N/A   Clear
8:53 PM 3.0 °F -10.5 °F -5.1 °F 69% 30.23 in 10.0 mi NW 8.1 mph - N/A   Clear
9:53 PM -5.1 °F -13.6 °F -11.0 °F 76% 30.24 in 10.0 mi West 3.5 mph - N/A   Clear
10:53 PM -4.0 °F -16.3 °F -11.0 °F 72% 30.22 in 10.0 mi WNW 5.8 mph - N/A   Clear
11:53 PM -4.0 °F - -9.9 °F 76% 30.22 in 10.0 mi Calm Calm - N/A   Clear